This is the latest recevied weather packets stored in our database for station/object OE-11272. If no packets are shown the sender has not sent any weather packets the latest 10 day(s).
| Time | Temp. | Humidity | Pressure | Rain* | Wind** | Luminosity | Snow |
|---|---|---|---|---|---|---|---|
| 1787799326 | 15.56° C | 100% | 1019 hPa | 0 mm | - | 0 W/m² | - |
| 1787798498 | 15.56° C | 100% | 1018.7 hPa | 0 mm | - | 0 W/m² | - |
| 1787798126 | 15.56° C | 100% | 1018.6 hPa | 0 mm | - | 0 W/m² | - |
| 1787797526 | 15.56° C | 100% | 1018.6 hPa | 0 mm | - | 0 W/m² | - |
| 1787796699 | 15.56° C | 100% | 1018.6 hPa | 0 mm | - | 0 W/m² | - |
| 1787796325 | 15.56° C | 99% | 1018.6 hPa | 0 mm | - | 0 W/m² | - |
| 1787795726 | 15.56° C | 100% | 1018.5 hPa | 0 mm | - | 0 W/m² | - |
| 1787794899 | 15.56° C | 99% | 1018.7 hPa | 0 mm | - | 0 W/m² | - |
| 1787794526 | 16.11° C | 99% | 1018.5 hPa | 0 mm | - | 0 W/m² | - |
| 1787793926 | 16.11° C | 99% | 1018.1 hPa | 0 mm | - | 0 W/m² | - |
| 1787793099 | 16.67° C | 98% | 1018.3 hPa | 0 mm | - | 0 W/m² | - |
| 1787792726 | 16.67° C | 99% | 1018 hPa | 0 mm | - | 0 W/m² | - |
| 1787792126 | 16.11° C | 98% | 1018.1 hPa | 0 mm | - | 0 W/m² | - |
| 1787791299 | 16.67° C | 99% | 1017.9 hPa | 0 mm | - | 0 W/m² | - |
| 1787790926 | 16.67° C | 98% | 1018 hPa | 0 mm | - | 0 W/m² | - |
| 1787790326 | 17.22° C | 98% | 1018 hPa | 0 mm | - | 0 W/m² | - |
| 1787789498 | 16.67° C | 99% | 1018 hPa | 0 mm | - | 0 W/m² | - |
| 1787789126 | 16.67° C | 99% | 1018.1 hPa | 0 mm | - | 0 W/m² | - |
| 1787788526 | 16.67° C | 98% | 1018.1 hPa | 0 mm | - | 0 W/m² | - |
| 1787787699 | 17.22° C | 98% | 1018 hPa | 0 mm | - | 0 W/m² | - |
| 1787787326 | 17.22° C | 98% | 1017.9 hPa | 0 mm | - | 0 W/m² | - |
| 1787786726 | 17.78° C | 97% | 1017.8 hPa | 0 mm | - | 0 W/m² | - |
| 1787786126 | 17.22° C | 97% | 1017.9 hPa | 0 mm | - | 0 W/m² | - |
| 1787785526 | 17.78° C | 96% | 1017.7 hPa | 0 mm | - | 0 W/m² | - |
| 1787784926 | 18.33° C | 94% | 1017.5 hPa | 0 mm | - | 0 W/m² | - |
* Rain latest hour (hover to see other rain measurements)
** Current wind speed in m/s (hover to see current wind gust speed)